Regional Weather Roundup
Issued by NWS

Home | Current Version | Previous Version | Graphics & Text | Print | Product List | Glossary On
Versions: 1 2 3 4 5 6 7 8 9 10 11 12 13 14 15 16 17 18 19 20 21 22 23 24 25 26 27 28 29 30 31 32 33 34 35 36 37 38 39 40 41 42 43 44 45 46 47 48 49 50
000
ASUS43 KOAX 280210
RWRNE

WEATHER ROUNDUP FOR NEBRASKA
NATIONAL WEATHER SERVICE OMAHA NE
900 PM CDT FRI MAR 27 2015

NOTES: SATELLITE DATA IS BEING USED TO AUGMENT CLOUD COVER ABOVE
       12000 FEET.
       "FAIR" INDICATES FEW OR NO CLOUDS BELOW 12,000 FEET WITH NO
       SIGNIFICANT WEATHER AND/OR OBSTRUCTIONS TO VISIBILITY.

  * THESE STATIONS DO NOT REPORT WEATHER SUCH AS RAIN...SNOW OR FOG.

NEZ001>004-019>022-054>056-280300-
NEBRASKA PANHANDLE

CITY           SKY/WX    TMP DP  RH WIND       PRES   REMARKS
SCOTTSBLUFF    MOCLDY    57  33  40 N8        29.99R
ALLIANCE       PTCLDY    53  32  44 NW7       29.97R
CHADRON        PTCLDY    51  34  52 CALM      29.96R
KIMBALL        PTCLDY    49  29  46 W9        30.03R
SIDNEY         MOCLDY    52  31  44 NW7       30.02R
$$

NEZ057>060-069>072-079>082-280300-
SOUTHWEST NEBRASKA

CITY           SKY/WX    TMP DP  RH WIND       PRES   REMARKS
NORTH PLATTE   CLOUDY    48  35  60 E7        29.96R
IMPERIAL       MOCLDY    58  33  39 NW6       29.96R
LEXINGTON      MOCLDY    48  35  60 S8        29.96S
MCCOOK         MOCLDY    58  35  42 N7        29.93R
OGALLALA       CLOUDY    53  33  45 NW5       29.96R
$$

NEZ005>010-023>029-035>040-094-280300-
NORTH CENTRAL NEBRASKA

CITY           SKY/WX    TMP DP  RH WIND       PRES   REMARKS
VALENTINE      CLEAR     50  34  54 N3        29.91S
AINSWORTH      CLEAR     53  34  50 CALM      29.92R
BROKEN BOW     CLOUDY    48  36  63 CALM      29.94S
O`NEILL        MOCLDY    36  30  80 SE12      29.97S WCI  27
ORD            MOCLDY    39  26  59 SE7       29.97R WCI  34
THEDFORD       MOCLDY    50  34  54 CALM      29.95R
$$

NEZ041-046>049-061>064-073>077-083>087-280300-
SOUTH CENTRAL NEBRASKA

CITY           SKY/WX    TMP DP  RH WIND       PRES   REMARKS
GRAND ISLAND   PTCLDY    36  25  64 SE10      30.03R WCI  28
AURORA         PTCLDY    34  26  72 SE10      30.03R WCI  26
HASTINGS       MOCLDY    39  25  57 SE10      30.00S WCI  32
HEBRON         MOCLDY    36  23  59 SE7       30.06R WCI  31
HOLDREGE       CLOUDY    48  32  53 S9        29.97S
KEARNEY *      CLOUDY    45  27  49 SE6       29.99R
YORK           CLOUDY    34  27  75 SE12      30.05S WCI  25
$$

NEZ011>018-030>034-042>045-280300-
NORTHEAST NEBRASKA

CITY           SKY/WX    TMP DP  RH WIND       PRES   REMARKS
NORFOLK        MOCLDY    33  27  78 SE13      30.02F WCI  24
ALBION         CLOUDY    34  26  71 SE10      30.02S WCI  26
BLAIR          CLOUDY    36  23  61 S5        30.10S WCI  32
COLUMBUS *     MOCLDY    36  21  55 SE12      30.07F WCI  27
FREMONT        CLOUDY    37  24  60 SE10      30.08F WCI  29
TEKAMAH        CLOUDY    36  22  56 SE9       30.11S WCI  29
WAYNE          CLOUDY    34  26  72 S14       30.05F WCI  24
$$

NEZ050>053-065>068-078-088>093-280300-
SOUTHEAST NEBRASKA

CITY           SKY/WX    TMP DP  RH WIND       PRES   REMARKS
LINCOLN        CLOUDY    38  23  55 E10       30.11F WCI  31
OMAHA EPPLEY   CLOUDY    37  17  44 SE8       30.12F WCI  31
BEATRICE       CLOUDY    37  24  59 SE7       30.09S WCI  32
FALLS CITY     CLOUDY    37  24  59 E6        30.14S WCI  32
NEBRASKA CITY  CLOUDY    36  21  55 E5        30.13S WCI  32
PLATTSMOUTH    CLOUDY    36  18  49 CALM      30.13S
$$

NEZ044-045-051>053-067-280300-
OMAHA AREA

CITY           SKY/WX    TMP DP  RH WIND       PRES   REMARKS
OMAHA EPPLEY   CLOUDY    37  17  44 SE8       30.12F WCI  31
BLAIR          CLOUDY    36  23  61 S5        30.10S WCI  32
FREMONT        CLOUDY    37  24  60 SE10      30.08F WCI  29
MILLARD        CLOUDY    37  21  53 SE6       30.12S WCI  32
OFFUTT AFB     CLOUDY    37  21  52 S3        30.12S
PLATTSMOUTH    CLOUDY    36  18  49 CALM      30.13S
WAHOO          CLOUDY    35  26  68 SE8       30.09F WCI  29
$$


USA.gov is the U.S. government's official web portal to all federal, state and local government web resources and services.